Powrót do katalogu

DELTA 1 DEB

AktywnySSO
NORAD 21338·DEBRIS·🇺🇸 United States

Wystrzelony Jun 12, 1975 z Vandenberg Space Force Base

Loading…

Następne Przeloty (najbliższe 24 godziny)

TLE

ŚwieżeSource: Space-Track

Epoka: Sep 14, 2026, 14:33 UTC

1 21338U 75052BG  26257.60641530  .00000077  00000-0  23203-3 0  9990
2 21338  99.6380 167.2132 0061138  19.9215  98.6170 13.34991887720522

Śledź DELTA 1 DEB w czasie rzeczywistym z AllMySat

Download on the App Store